星链-36486(STARLINK-36486)

导读

STARLINK-36486是由美国发射的星链计划卫星,于2026年1月09日成功升空。它隶属于SpaceX公司打造的星链卫星互联网星座,旨在为全球用户提供高速、低延迟的宽带互联网服务,尤其服务偏远地区与网络基础设施薄弱区域,助力全球互联网覆盖进一步完善。

Basic Information
目录编号:
67335
目录名称:
STARLINK-36486
国际标识:
2026-003B
轨道中心:
EARTH
卫星名称:
星链-36486
卫星全名:
星链-36486(STARLINK-36486)
卫星状态:
在轨 (已飞行238 天)
发射日期:
2026-01-09 UTC
国别 :
美国 (US)
星等 :
--
Orbit Information
数据来源 国际轨道数据
星历时间: 2026-09-03T20:30:00+0800
1天前
查看轨道信息
半长轴: 6861.209km
偏心率: 0.0001305
轨道倾角: 43.001°
近地点辐角 274.687°
升交点赤经 302.533°
平近点角 85.384°
近地点: 482.176km
远地点: 483.968km
周期: 94.267分钟
每日圈数: 15.275724
Detailed Information
固有亮度:
5
最大亮度:
2.5
卫星平台:
Starlink V1.0
覆盖范围:
全球
运营商:
太空探索技术公司
运营商所在国:
美国
制造商(研发单位):
太空探索技术公司
制造商所在国:
美国
使用方式:
暂无
Satellite Introduction
Starlink 计划是 SpaceX 推出的全球卫星互联网项目,通过发射低轨道卫星,为全球尤其是偏远地区提供高速、低延迟的互联网服务。自 2019 年起,Starlink 已部署数千颗卫星,旨在缩小全球数字鸿沟,推动互联网普及。该项目还为军事、航空等行业提供通信支持,带来广泛经济效益。
2D Orbit Map
3D Orbit Map
Orbit Altitude Analysis Chart
Orbit Inclination Analysis Chart
Orbit Comprehensive Analysis Chart
View Comprehensive Chart
Conjunction Data List
Event ID Objects TCA Miss Dist (km) Collision Risk Probability Collision Risk Index (CRI) Action
CDM_260903-075306-398506-733521
OBJECT D (63985)
2026-09-03T
07:53:08+0000
1.094 km
极远距离
1.202048E-5 中风险 0.57
CDM_260827-210105-716806-733522
OBJECT C (57168)
2026-08-27T
21:01:54+0000
1.494 km
极远距离
4.507922E-6 低风险 0.48
CDM_260906-124706-319706-733521
2026-09-06T
12:47:52+0000
2.039 km
极远距离
2.10954E-6 低风险 0.41